Time,TemperatureF,DewpointF,PressureIn,WindDirection,WindDirectionDegrees,WindSpeedMPH,WindSpeedGustMPH,Humidity,HourlyPrecipIn,Conditions,Clouds,dailyrainin,SoftwareType,DateUTC
2013-08-12 00:01:00,69.1,64.4,29.37,West,265,0.0,2.0,85,0.00,,---,0.00,VWS V14.00,2013-08-12 04:01:00,
2013-08-12 00:02:00,69.1,64.4,29.37,West,265,0.0,2.0,85,0.00,,---,0.00,VWS V14.00,2013-08-12 04:02:00,
2013-08-12 00:04:00,69.0,64.6,29.37,West,265,0.0,2.0,86,0.00,,---,0.00,VWS V14.00,2013-08-12 04:04:00,
2013-08-12 00:06:00,69.0,64.6,29.37,West,265,0.0,2.0,86,0.00,,---,0.00,VWS V14.00,2013-08-12 04:06:00,
2013-08-12 00:11:00,69.0,64.6,29.37,West,265,0.0,0.0,86,0.00,,---,0.00,VWS V14.00,2013-08-12 04:11:00,
2013-08-12 00:16:00,68.9,64.9,29.37,West,265,0.0,0.0,87,0.00,,---,0.00,VWS V14.00,2013-08-12 04:16:00,
2013-08-12 00:21:00,68.8,64.8,29.37,West,265,0.0,0.0,87,0.00,,---,0.00,VWS V14.00,2013-08-12 04:21:00,
2013-08-12 00:26:00,68.7,64.7,29.37,West,265,1.0,2.0,87,0.00,,---,0.00,VWS V14.00,2013-08-12 04:26:00,
2013-08-12 00:31:00,68.7,65.0,29.37,West,265,0.0,2.0,88,0.00,,---,0.00,VWS V14.00,2013-08-12 04:31:00,
2013-08-12 00:36:00,68.7,65.0,29.37,West,265,0.0,2.0,88,0.00,,---,0.00,VWS V14.00,2013-08-12 04:36:00,
2013-08-12 00:41:00,68.7,65.0,29.37,West,265,0.0,0.0,88,0.00,,---,0.00,VWS V14.00,2013-08-12 04:41:00,
2013-08-12 00:46:00,68.7,65.0,29.37,West,265,0.0,0.0,88,0.00,,---,0.00,VWS V14.00,2013-08-12 04:46:00,
2013-08-12 00:51:00,68.5,64.8,29.37,West,265,0.0,0.0,88,0.00,,---,0.00,VWS V14.00,2013-08-12 04:51:00,
2013-08-12 00:56:00,68.4,65.0,29.37,West,265,0.0,0.0,89,0.00,,---,0.00,VWS V14.00,2013-08-12 04:56:00,
2013-08-12 01:01:00,68.5,65.1,29.37,West,265,0.0,0.0,89,0.00,,---,0.00,VWS V14.00,2013-08-12 05:01:00,
2013-08-12 01:07:00,68.6,65.2,29.37,West,265,0.0,0.0,89,0.00,,---,0.00,VWS V14.00,2013-08-12 05:07:00,
2013-08-12 01:12:00,68.6,65.2,29.37,West,265,0.0,0.0,89,0.00,,---,0.00,VWS V14.00,2013-08-12 05:12:00,
2013-08-12 01:17:00,68.5,65.1,29.37,West,265,0.0,0.0,89,0.00,,---,0.00,VWS V14.00,2013-08-12 05:17:00,
2013-08-12 01:22:00,68.4,65.0,29.37,West,265,0.0,0.0,89,0.00,,---,0.00,VWS V14.00,2013-08-12 05:22:00,
2013-08-12 01:27:00,68.4,65.4,29.37,West,265,0.0,0.0,90,0.00,,---,0.00,VWS V14.00,2013-08-12 05:27:00,
2013-08-12 01:32:00,68.3,65.3,29.37,West,265,0.0,0.0,90,0.00,,---,0.00,VWS V14.00,2013-08-12 05:32:00,
2013-08-12 01:37:00,68.3,65.3,29.37,West,265,0.0,0.0,90,0.00,,---,0.00,VWS V14.00,2013-08-12 05:37:00,
2013-08-12 01:42:00,68.4,65.4,29.37,West,265,0.0,0.0,90,0.00,,---,0.00,VWS V14.00,2013-08-12 05:42:00,
2013-08-12 01:47:00,68.3,65.3,29.37,West,265,0.0,0.0,90,0.00,,---,0.00,VWS V14.00,2013-08-12 05:47:00,
2013-08-12 01:52:00,68.1,65.1,29.37,West,265,0.0,0.0,90,0.00,,---,0.00,VWS V14.00,2013-08-12 05:52:00,
2013-08-12 01:57:00,68.1,65.1,29.37,West,265,0.0,0.0,90,0.00,,---,0.00,VWS V14.00,2013-08-12 05:57:00,
2013-08-12 02:02:00,68.1,65.1,29.37,West,265,0.0,0.0,90,0.00,,---,0.00,VWS V14.00,2013-08-12 06:02:00,
2013-08-12 02:07:00,68.2,65.2,29.37,West,265,0.0,0.0,90,0.00,,---,0.00,VWS V14.00,2013-08-12 06:07:00,
2013-08-12 02:12:00,68.3,65.3,29.37,West,265,0.0,0.0,90,0.00,,---,0.00,VWS V14.00,2013-08-12 06:12:00,
2013-08-12 02:17:00,68.3,65.3,29.37,West,265,0.0,0.0,90,0.00,,---,0.00,VWS V14.00,2013-08-12 06:17:00,
2013-08-12 02:22:00,68.5,65.8,29.37,West,265,0.0,0.0,91,0.00,,---,0.00,VWS V14.00,2013-08-12 06:22:00,
2013-08-12 02:28:00,68.4,65.7,29.37,West,265,2.0,3.0,91,0.00,,---,0.00,VWS V14.00,2013-08-12 06:28:00,
2013-08-12 02:33:00,68.2,65.2,29.37,West,265,0.0,3.0,90,0.00,,---,0.00,VWS V14.00,2013-08-12 06:33:00,
2013-08-12 02:38:00,68.2,65.2,29.37,West,265,0.0,0.0,90,0.00,,---,0.00,VWS V14.00,2013-08-12 06:38:00,
2013-08-12 02:43:00,68.3,65.6,29.37,West,265,0.0,0.0,91,0.00,,---,0.00,VWS V14.00,2013-08-12 06:43:00,
2013-08-12 02:48:00,68.1,65.1,29.37,West,265,0.0,3.0,90,0.00,,---,0.00,VWS V14.00,2013-08-12 06:48:00,
2013-08-12 02:53:00,68.1,65.4,29.37,West,265,0.0,3.0,91,0.00,,---,0.00,VWS V14.00,2013-08-12 06:53:00,
2013-08-12 02:58:00,68.0,65.3,29.37,West,265,2.0,3.0,91,0.00,,---,0.00,VWS V14.00,2013-08-12 06:58:00,
2013-08-12 03:03:00,68.0,65.3,29.37,West,265,0.0,3.0,91,0.00,,---,0.00,VWS V14.00,2013-08-12 07:03:00,
2013-08-12 03:08:00,67.9,65.2,29.37,West,265,0.0,0.0,91,0.00,,---,0.00,VWS V14.00,2013-08-12 07:08:00,
2013-08-12 03:13:00,67.9,65.2,29.37,West,265,0.0,0.0,91,0.00,,---,0.00,VWS V14.00,2013-08-12 07:13:00,
2013-08-12 03:18:00,68.0,65.3,29.37,West,265,0.0,0.0,91,0.00,,---,0.00,VWS V14.00,2013-08-12 07:18:00,
2013-08-12 03:23:00,68.0,65.3,29.37,West,265,0.0,0.0,91,0.00,,---,0.00,VWS V14.00,2013-08-12 07:23:00,
2013-08-12 03:28:00,67.9,65.2,29.37,West,265,0.0,0.0,91,0.00,,---,0.00,VWS V14.00,2013-08-12 07:28:00,
2013-08-12 03:33:00,67.9,65.2,29.37,West,265,0.0,0.0,91,0.00,,---,0.00,VWS V14.00,2013-08-12 07:33:00,
2013-08-12 03:38:00,67.7,65.0,29.37,West,265,0.0,0.0,91,0.00,,---,0.00,VWS V14.00,2013-08-12 07:38:00,
2013-08-12 03:43:00,67.9,65.2,29.37,West,265,0.0,0.0,91,0.00,,---,0.00,VWS V14.00,2013-08-12 07:43:00,
2013-08-12 03:48:00,68.0,65.3,29.37,West,265,0.0,0.0,91,0.00,,---,0.00,VWS V14.00,2013-08-12 07:48:00,
2013-08-12 03:54:00,67.8,65.1,29.37,West,265,0.0,0.0,91,0.00,,---,0.00,VWS V14.00,2013-08-12 07:54:00,
2013-08-12 03:59:00,67.6,64.9,29.37,West,265,0.0,0.0,91,0.00,,---,0.00,VWS V14.00,2013-08-12 07:59:00,
2013-08-12 04:04:00,67.5,64.8,29.37,West,265,0.0,0.0,91,0.00,,---,0.00,VWS V14.00,2013-08-12 08:04:00,
2013-08-12 04:09:00,67.4,64.7,29.37,West,265,0.0,0.0,91,0.00,,---,0.00,VWS V14.00,2013-08-12 08:09:00,
2013-08-12 04:14:00,67.4,64.7,29.37,West,265,0.0,0.0,91,0.00,,---,0.00,VWS V14.00,2013-08-12 08:14:00,
2013-08-12 04:19:00,67.2,64.5,29.37,West,265,0.0,0.0,91,0.00,,---,0.00,VWS V14.00,2013-08-12 08:19:00,
2013-08-12 04:24:00,67.1,64.4,29.37,West,265,0.0,0.0,91,0.00,,---,0.00,VWS V14.00,2013-08-12 08:24:00,
2013-08-12 04:29:00,67.1,64.4,29.37,West,265,0.0,0.0,91,0.00,,---,0.00,VWS V14.00,2013-08-12 08:29:00,
2013-08-12 04:34:00,67.1,64.4,29.37,West,265,0.0,0.0,91,0.00,,---,0.00,VWS V14.00,2013-08-12 08:34:00,
2013-08-12 04:39:00,67.2,64.5,29.37,West,265,0.0,0.0,91,0.00,,---,0.00,VWS V14.00,2013-08-12 08:39:00,
2013-08-12 04:44:00,67.2,64.5,29.37,West,265,0.0,0.0,91,0.00,,---,0.00,VWS V14.00,2013-08-12 08:44:00,
2013-08-12 04:49:00,67.0,64.3,29.37,West,265,0.0,0.0,91,0.00,,---,0.00,VWS V14.00,2013-08-12 08:49:00,
2013-08-12 04:54:00,66.9,64.2,29.37,West,265,0.0,0.0,91,0.00,,---,0.00,VWS V14.00,2013-08-12 08:54:00,
2013-08-12 04:59:00,66.8,64.1,29.37,West,265,0.0,3.0,91,0.00,,---,0.00,VWS V14.00,2013-08-12 08:59:00,
2013-08-12 05:04:00,66.8,64.1,29.37,West,265,0.0,3.0,91,0.00,,---,0.00,VWS V14.00,2013-08-12 09:04:00,
2013-08-12 05:09:00,66.7,64.0,29.37,West,265,0.0,0.0,91,0.00,,---,0.00,VWS V14.00,2013-08-12 09:09:00,
2013-08-12 05:15:00,66.6,63.9,29.37,West,265,0.0,0.0,91,0.00,,---,0.00,VWS V14.00,2013-08-12 09:15:00,
2013-08-12 05:20:00,66.5,63.8,29.37,West,265,0.0,0.0,91,0.00,,---,0.00,VWS V14.00,2013-08-12 09:20:00,
2013-08-12 05:25:00,66.6,63.9,29.37,West,265,0.0,0.0,91,0.00,,---,0.00,VWS V14.00,2013-08-12 09:25:00,
2013-08-12 05:30:00,66.5,63.8,29.37,West,265,0.0,0.0,91,0.00,,---,0.00,VWS V14.00,2013-08-12 09:30:00,
2013-08-12 05:35:00,66.5,63.8,29.37,West,265,0.0,0.0,91,0.00,,---,0.00,VWS V14.00,2013-08-12 09:35:00,
2013-08-12 05:40:00,66.6,63.9,29.37,West,265,0.0,0.0,91,0.00,,---,0.00,VWS V14.00,2013-08-12 09:40:00,
2013-08-12 05:45:00,66.9,64.2,29.37,West,265,0.0,0.0,91,0.00,,---,0.00,VWS V14.00,2013-08-12 09:45:00,
2013-08-12 05:50:00,67.1,64.4,29.37,West,265,0.0,0.0,91,0.00,,---,0.00,VWS V14.00,2013-08-12 09:50:00,
2013-08-12 05:55:00,66.8,64.1,29.37,West,265,0.0,0.0,91,0.00,,---,0.00,VWS V14.00,2013-08-12 09:55:00,
2013-08-12 06:00:00,66.7,64.0,29.37,West,265,0.0,0.0,91,0.00,,---,0.00,VWS V14.00,2013-08-12 10:00:00,
2013-08-12 06:05:00,66.6,63.9,29.37,West,265,0.0,0.0,91,0.00,,---,0.00,VWS V14.00,2013-08-12 10:05:00,
2013-08-12 06:10:00,66.5,63.8,29.37,West,265,0.0,0.0,91,0.00,,---,0.00,VWS V14.00,2013-08-12 10:10:00,
2013-08-12 06:15:00,66.4,63.7,29.37,West,265,0.0,0.0,91,0.00,,---,0.00,VWS V14.00,2013-08-12 10:15:00,
2013-08-12 06:20:00,66.5,63.8,29.37,West,265,0.0,0.0,91,0.00,,---,0.00,VWS V14.00,2013-08-12 10:20:00,
2013-08-12 06:25:00,66.4,63.7,29.37,West,265,0.0,0.0,91,0.00,,---,0.00,VWS V14.00,2013-08-12 10:25:00,
2013-08-12 06:30:00,66.5,63.8,29.37,West,265,0.0,0.0,91,0.00,,---,0.00,VWS V14.00,2013-08-12 10:30:00,
2013-08-12 06:36:00,66.5,63.8,29.37,West,265,0.0,0.0,91,0.00,,---,0.00,VWS V14.00,2013-08-12 10:36:00,
2013-08-12 06:41:00,66.3,63.6,29.37,West,265,2.0,2.0,91,0.00,,---,0.00,VWS V14.00,2013-08-12 10:41:00,
2013-08-12 06:46:00,66.3,63.6,29.37,West,265,0.0,2.0,91,0.00,,---,0.00,VWS V14.00,2013-08-12 10:46:00,
2013-08-12 06:51:00,66.4,63.7,29.37,West,265,0.0,2.0,91,0.00,,---,0.00,VWS V14.00,2013-08-12 10:51:00,
2013-08-12 06:56:00,66.5,63.8,29.37,West,265,0.0,2.0,91,0.00,,---,0.00,VWS V14.00,2013-08-12 10:56:00,
2013-08-12 07:01:00,66.5,63.8,29.37,West,265,0.0,2.0,91,0.00,,---,0.00,VWS V14.00,2013-08-12 11:01:00,
2013-08-12 07:06:00,66.3,63.6,29.37,West,265,0.0,2.0,91,0.00,,---,0.00,VWS V14.00,2013-08-12 11:06:00,
2013-08-12 07:11:00,66.0,63.3,29.37,West,265,0.0,0.0,91,0.00,,---,0.00,VWS V14.00,2013-08-12 11:11:00,
2013-08-12 07:16:00,65.9,63.2,29.37,West,265,0.0,0.0,91,0.00,,---,0.00,VWS V14.00,2013-08-12 11:16:00,
2013-08-12 07:21:00,66.1,63.4,29.37,West,265,0.0,0.0,91,0.00,,---,0.00,VWS V14.00,2013-08-12 11:21:00,
2013-08-12 07:26:00,66.1,63.4,29.37,West,265,0.0,0.0,91,0.00,,---,0.00,VWS V14.00,2013-08-12 11:26:00,
2013-08-12 07:31:00,66.1,63.4,29.37,West,265,0.0,0.0,91,0.00,,---,0.00,VWS V14.00,2013-08-12 11:31:00,
2013-08-12 07:36:00,66.4,64.0,29.37,West,265,0.0,0.0,92,0.00,,---,0.00,VWS V14.00,2013-08-12 11:36:00,
2013-08-12 07:41:00,66.3,63.9,29.37,West,265,0.0,0.0,92,0.00,,---,0.00,VWS V14.00,2013-08-12 11:41:00,
2013-08-12 07:46:00,66.3,63.6,29.37,West,265,0.0,0.0,91,0.00,,---,0.00,VWS V14.00,2013-08-12 11:46:00,
2013-08-12 07:51:00,66.6,64.2,29.37,West,265,0.0,0.0,92,0.00,,---,0.00,VWS V14.00,2013-08-12 11:51:00,
2013-08-12 07:56:00,67.0,64.3,29.37,West,265,0.0,0.0,91,0.00,,---,0.00,VWS V14.00,2013-08-12 11:56:00,
2013-08-12 08:02:00,67.2,64.8,29.37,West,265,0.0,0.0,92,0.00,,---,0.00,VWS V14.00,2013-08-12 12:02:00,
2013-08-12 08:07:00,67.5,65.1,29.37,West,265,0.0,0.0,92,0.00,,---,0.00,VWS V14.00,2013-08-12 12:07:00,
2013-08-12 08:12:00,67.9,65.5,29.37,West,265,0.0,0.0,92,0.00,,---,0.00,VWS V14.00,2013-08-12 12:12:00,
2013-08-12 08:17:00,68.2,65.8,29.37,West,265,0.0,0.0,92,0.00,,---,0.00,VWS V14.00,2013-08-12 12:17:00,
2013-08-12 08:22:00,68.3,65.9,29.37,West,265,0.0,0.0,92,0.00,,---,0.00,VWS V14.00,2013-08-12 12:22:00,
2013-08-12 08:27:00,68.4,65.7,29.37,West,265,0.0,0.0,91,0.00,,---,0.00,VWS V14.00,2013-08-12 12:27:00,
2013-08-12 08:32:00,68.6,66.2,29.37,West,265,0.0,0.0,92,0.00,,---,0.00,VWS V14.00,2013-08-12 12:32:00,
2013-08-12 08:37:00,69.0,66.6,29.37,West,267,3.0,3.0,92,0.00,,---,0.00,VWS V14.00,2013-08-12 12:37:00,
2013-08-12 08:43:00,69.2,66.8,29.37,West,267,0.0,3.0,92,0.00,,---,0.00,VWS V14.00,2013-08-12 12:43:00,
2013-08-12 08:48:00,69.3,66.9,29.37,West,267,0.0,3.0,92,0.00,,---,0.00,VWS V14.00,2013-08-12 12:48:00,
2013-08-12 08:53:00,69.4,67.0,29.37,West,267,0.0,3.0,92,0.00,,---,0.00,VWS V14.00,2013-08-12 12:53:00,
2013-08-12 08:58:00,69.6,66.9,29.37,West,269,0.0,3.0,91,0.00,,---,0.00,VWS V14.00,2013-08-12 12:58:00,
2013-08-12 09:03:00,69.7,67.0,29.37,West,269,0.0,3.0,91,0.00,,---,0.00,VWS V14.00,2013-08-12 13:03:00,
2013-08-12 09:08:00,69.9,67.5,29.37,West,269,0.0,0.0,92,0.00,,---,0.00,VWS V14.00,2013-08-12 13:08:00,
2013-08-12 09:13:00,70.3,67.6,29.37,West,268,0.0,0.0,91,0.00,,---,0.00,VWS V14.00,2013-08-12 13:13:00,
2013-08-12 09:18:00,70.4,67.7,29.37,West,262,0.0,1.0,91,0.00,,---,0.00,VWS V14.00,2013-08-12 13:18:00,
2013-08-12 09:23:00,70.4,67.7,29.37,West,260,0.0,1.0,91,0.00,,---,0.00,VWS V14.00,2013-08-12 13:23:00,
2013-08-12 09:28:00,70.6,67.5,29.37,SSE,161,2.0,5.0,90,0.00,,---,0.00,VWS V14.00,2013-08-12 13:28:00,
2013-08-12 09:33:00,70.8,67.4,29.37,ESE,123,0.0,5.0,89,0.00,,---,0.00,VWS V14.00,2013-08-12 13:33:00,
2013-08-12 09:38:00,71.0,67.6,29.37,ESE,123,0.0,1.0,89,0.00,,---,0.00,VWS V14.00,2013-08-12 13:38:00,
2013-08-12 09:43:00,71.3,67.9,29.37,SE,126,2.0,4.0,89,0.00,,---,0.00,VWS V14.00,2013-08-12 13:43:00,
2013-08-12 09:48:00,71.4,67.7,29.37,SE,127,2.0,4.0,88,0.00,,---,0.00,VWS V14.00,2013-08-12 13:48:00,
2013-08-12 09:54:00,71.6,67.2,29.37,South,184,4.0,4.0,86,0.00,,---,0.00,VWS V14.00,2013-08-12 13:54:00,
2013-08-12 09:59:00,72.1,67.3,29.37,SSE,148,0.0,6.0,85,0.00,,---,0.00,VWS V14.00,2013-08-12 13:59:00,
2013-08-12 10:04:00,72.2,67.1,29.37,SSE,153,0.0,6.0,84,0.00,,---,0.00,VWS V14.00,2013-08-12 14:04:00,
2013-08-12 10:09:00,72.6,66.8,29.37,SSE,155,2.0,5.0,82,0.00,,---,0.00,VWS V14.00,2013-08-12 14:09:00,
2013-08-12 10:14:00,72.8,66.6,29.37,SSE,155,3.0,6.0,81,0.00,,---,0.00,VWS V14.00,2013-08-12 14:14:00,
2013-08-12 10:19:00,73.0,66.8,29.37,SSE,155,2.0,6.0,81,0.00,,---,0.00,VWS V14.00,2013-08-12 14:19:00,
2013-08-12 10:24:00,73.5,67.3,29.37,SSE,155,0.0,6.0,81,0.00,,---,0.00,VWS V14.00,2013-08-12 14:24:00,
2013-08-12 10:29:00,74.2,67.6,29.37,SSE,155,0.0,6.0,80,0.00,,---,0.00,VWS V14.00,2013-08-12 14:29:00,
2013-08-12 10:34:00,74.7,67.8,25.09,SSE,155,0.0,6.0,79,0.00,,---,0.00,VWS V14.00,2013-08-12 14:34:00,
2013-08-12 10:39:00,74.6,67.7,25.09,SSE,155,0.0,1.0,79,0.00,,---,0.00,VWS V14.00,2013-08-12 14:39:00,
2013-08-12 10:44:00,75.0,67.7,25.09,SSE,155,0.0,1.0,78,0.00,,---,0.00,VWS V14.00,2013-08-12 14:44:00,
2013-08-12 10:49:00,75.2,67.1,25.09,SSE,153,4.0,5.0,76,0.00,,---,0.00,VWS V14.00,2013-08-12 14:49:00,
2013-08-12 10:54:00,75.5,68.2,25.09,SSE,153,4.0,5.0,78,0.00,,---,0.00,VWS V14.00,2013-08-12 14:54:00,
2013-08-12 11:00:00,75.6,67.1,25.09,SSE,150,2.0,6.0,75,0.00,,---,0.00,VWS V14.00,2013-08-12 15:00:00,
2013-08-12 11:05:00,75.8,67.3,25.09,SSE,155,3.0,6.0,75,0.00,,---,0.00,VWS V14.00,2013-08-12 15:05:00,
2013-08-12 11:10:00,75.9,67.4,25.09,SSE,152,3.0,6.0,75,0.00,,---,0.00,VWS V14.00,2013-08-12 15:10:00,
2013-08-12 11:15:00,76.0,67.5,25.09,SSE,150,6.0,6.0,75,0.00,,---,0.00,VWS V14.00,2013-08-12 15:15:00,
2013-08-12 11:20:00,76.1,67.6,25.09,SSE,153,5.0,6.0,75,0.00,,---,0.00,VWS V14.00,2013-08-12 15:20:00,
2013-08-12 11:25:00,76.2,67.7,25.09,SSE,152,3.0,6.0,75,0.00,,---,0.00,VWS V14.00,2013-08-12 15:25:00,
2013-08-12 11:30:00,76.4,67.9,25.09,SE,138,5.0,6.0,75,0.00,,---,0.00,VWS V14.00,2013-08-12 15:30:00,
2013-08-12 11:35:00,76.6,68.1,25.09,SE,141,3.0,6.0,75,0.00,,---,0.00,VWS V14.00,2013-08-12 15:35:00,
2013-08-12 11:40:00,76.8,67.9,25.09,SE,141,3.0,4.0,74,0.00,,---,0.00,VWS V14.00,2013-08-12 15:40:00,
2013-08-12 11:45:00,76.9,68.4,25.09,SE,138,3.0,4.0,75,0.00,,---,0.00,VWS V14.00,2013-08-12 15:45:00,
2013-08-12 11:50:00,76.9,68.4,25.09,SE,143,3.0,4.0,75,0.00,,---,0.00,VWS V14.00,2013-08-12 15:50:00,
2013-08-12 11:55:00,77.0,68.5,25.09,SE,143,3.0,4.0,75,0.00,,---,0.00,VWS V14.00,2013-08-12 15:55:00,
2013-08-12 12:00:00,77.2,68.3,25.09,SE,144,2.0,4.0,74,0.00,,---,0.00,VWS V14.00,2013-08-12 16:00:00,
2013-08-12 12:05:00,77.5,69.0,25.09,SE,146,4.0,5.0,75,0.00,,---,0.00,VWS V14.00,2013-08-12 16:05:00,
2013-08-12 12:10:00,77.6,69.1,25.09,SSE,151,6.0,7.0,75,0.00,,---,0.00,VWS V14.00,2013-08-12 16:10:00,
2013-08-12 12:16:00,77.8,68.9,25.09,SE,146,7.0,9.0,74,0.00,,---,0.00,VWS V14.00,2013-08-12 16:16:00,
2013-08-12 12:21:00,78.0,69.1,25.09,SSE,150,5.0,9.0,74,0.00,,---,0.00,VWS V14.00,2013-08-12 16:21:00,
2013-08-12 12:26:00,78.2,68.8,25.09,South,169,5.0,11.0,73,0.00,,---,0.00,VWS V14.00,2013-08-12 16:26:00,
2013-08-12 12:31:00,78.4,69.0,25.09,SSE,156,5.0,11.0,73,0.00,,---,0.00,VWS V14.00,2013-08-12 16:31:00,
2013-08-12 12:36:00,78.7,68.9,25.09,SSE,165,4.0,11.0,72,0.00,,---,0.00,VWS V14.00,2013-08-12 16:36:00,
2013-08-12 12:41:00,78.7,68.5,25.09,SSE,151,7.0,12.0,71,0.00,,---,0.00,VWS V14.00,2013-08-12 16:41:00,
2013-08-12 12:46:00,78.7,68.9,25.09,SSE,161,10.0,13.0,72,0.00,,---,0.00,VWS V14.00,2013-08-12 16:46:00,
2013-08-12 12:51:00,78.8,69.0,25.09,South,186,7.0,14.0,72,0.00,,---,0.00,VWS V14.00,2013-08-12 16:51:00,
2013-08-12 12:56:00,78.7,68.9,25.09,SSE,148,11.0,14.0,72,0.00,,---,0.00,VWS V14.00,2013-08-12 16:56:00,
2013-08-12 13:01:00,78.8,69.4,25.09,South,171,5.0,14.0,73,0.00,,---,0.00,VWS V14.00,2013-08-12 17:01:00,
2013-08-12 13:06:00,78.7,69.3,25.09,South,171,10.0,14.0,73,0.00,,---,0.00,VWS V14.00,2013-08-12 17:06:00,
2013-08-12 13:11:00,78.8,69.4,25.09,SSE,156,8.0,11.0,73,0.00,,---,0.00,VWS V14.00,2013-08-12 17:11:00,
2013-08-12 13:16:00,78.7,69.3,32.20,SSE,164,10.0,12.0,73,0.00,,---,0.00,VWS V14.00,2013-08-12 17:16:00,
2013-08-12 13:21:00,78.7,69.3,32.20,South,172,7.0,12.0,73,0.00,,---,0.00,VWS V14.00,2013-08-12 17:21:00,
2013-08-12 13:27:00,78.7,69.3,32.20,SSE,155,7.0,12.0,73,0.00,,---,0.00,VWS V14.00,2013-08-12 17:27:00,
2013-08-12 13:32:00,78.7,69.7,32.20,SSE,161,6.0,12.0,74,0.00,,---,0.00,VWS V14.00,2013-08-12 17:32:00,
2013-08-12 13:37:00,78.7,69.7,32.20,South,171,5.0,12.0,74,0.00,,---,0.00,VWS V14.00,2013-08-12 17:37:00,
2013-08-12 13:42:00,78.9,69.9,32.20,South,173,4.0,6.0,74,0.00,,---,0.00,VWS V14.00,2013-08-12 17:42:00,
2013-08-12 13:47:00,78.9,70.3,30.31,SSE,159,5.0,11.0,75,0.00,,---,0.00,VWS V14.00,2013-08-12 17:47:00,
2013-08-12 13:52:00,79.0,70.0,30.31,SSE,161,8.0,11.0,74,0.00,,---,0.00,VWS V14.00,2013-08-12 17:52:00,
2013-08-12 13:57:00,79.0,69.6,30.31,SSE,164,6.0,11.0,73,0.00,,---,0.00,VWS V14.00,2013-08-12 17:57:00,
2013-08-12 14:02:00,78.9,69.1,32.00,SSE,159,7.0,11.0,72,0.00,,---,0.00,VWS V14.00,2013-08-12 18:02:00,
2013-08-12 14:07:00,78.8,69.4,32.00,SSE,162,6.0,11.0,73,0.00,,---,0.00,VWS V14.00,2013-08-12 18:07:00,
2013-08-12 14:12:00,78.9,69.9,32.00,SSE,158,4.0,8.0,74,0.00,,---,0.00,VWS V14.00,2013-08-12 18:12:00,
2013-08-12 14:17:00,78.9,69.9,32.00,South,173,6.0,9.0,74,0.00,,---,0.00,VWS V14.00,2013-08-12 18:17:00,
2013-08-12 14:22:00,78.9,69.5,32.00,South,173,4.0,9.0,73,0.00,,---,0.00,VWS V14.00,2013-08-12 18:22:00,
2013-08-12 14:28:00,79.1,70.1,32.00,SSE,166,7.0,9.0,74,0.00,,---,0.00,VWS V14.00,2013-08-12 18:28:00,
2013-08-12 14:33:00,79.1,70.1,32.00,SSE,159,5.0,9.0,74,0.00,,---,0.00,VWS V14.00,2013-08-12 18:33:00,
2013-08-12 14:38:00,79.0,70.0,32.00,SSE,165,6.0,7.0,74,0.00,,---,0.00,VWS V14.00,2013-08-12 18:38:00,
2013-08-12 14:43:00,79.0,70.0,32.00,South,180,1.0,11.0,74,0.00,,---,0.00,VWS V14.00,2013-08-12 18:43:00,
2013-08-12 14:48:00,79.2,70.2,32.00,South,173,6.0,11.0,74,0.00,,---,0.00,VWS V14.00,2013-08-12 18:48:00,
2013-08-12 14:53:00,79.3,70.3,30.83,SW,215,0.0,11.0,74,0.00,,---,0.00,VWS V14.00,2013-08-12 18:53:00,
2013-08-12 14:59:00,79.5,70.9,30.83,SSW,213,0.0,11.0,75,0.00,,---,0.00,VWS V14.00,2013-08-12 18:59:00,
2013-08-12 15:04:00,79.6,70.6,30.83,SSW,213,4.0,11.0,74,0.00,,---,0.00,VWS V14.00,2013-08-12 19:04:00,
2013-08-12 15:09:00,79.4,70.4,30.83,SSE,155,4.0,8.0,74,0.00,,---,0.00,VWS V14.00,2013-08-12 19:09:00,
2013-08-12 15:14:00,79.2,70.2,30.83,SSE,153,4.0,10.0,74,0.00,,---,0.00,VWS V14.00,2013-08-12 19:14:00,
2013-08-12 15:19:00,79.3,70.3,27.95,SSE,166,6.0,10.0,74,0.00,,---,0.00,VWS V14.00,2013-08-12 19:19:00,
2013-08-12 15:24:00,79.3,70.3,27.95,SSE,157,5.0,10.0,74,0.00,,---,0.00,VWS V14.00,2013-08-12 19:24:00,
2013-08-12 15:29:00,79.2,70.2,27.95,SSE,155,5.0,10.0,74,0.00,,---,0.00,VWS V14.00,2013-08-12 19:29:00,
2013-08-12 15:34:00,79.3,70.3,27.95,SSE,154,0.0,10.0,74,0.00,,---,0.00,VWS V14.00,2013-08-12 19:34:00,
2013-08-12 15:39:00,79.5,70.9,27.95,SSE,154,5.0,6.0,75,0.00,,---,0.00,VWS V14.00,2013-08-12 19:39:00,
2013-08-12 15:44:00,79.6,70.6,27.95,SSE,153,5.0,6.0,74,0.00,,---,0.00,VWS V14.00,2013-08-12 19:44:00,
2013-08-12 15:49:00,79.6,70.6,27.95,SSE,154,4.0,6.0,74,0.00,,---,0.00,VWS V14.00,2013-08-12 19:49:00,
2013-08-12 15:54:00,79.6,70.6,27.95,SSE,154,3.0,6.0,74,0.00,,---,0.00,VWS V14.00,2013-08-12 19:54:00,
2013-08-12 15:59:00,79.7,70.7,27.95,SSE,159,5.0,6.0,74,0.00,,---,0.00,VWS V14.00,2013-08-12 19:59:00,
2013-08-12 16:04:00,79.8,70.8,27.95,SSE,157,5.0,7.0,74,0.00,,---,0.00,VWS V14.00,2013-08-12 20:04:00,
2013-08-12 16:09:00,79.8,70.4,27.95,SSE,161,4.0,6.0,73,0.00,,---,0.00,VWS V14.00,2013-08-12 20:09:00,
2013-08-12 16:14:00,79.8,70.4,27.95,SSE,160,3.0,6.0,73,0.00,,---,0.00,VWS V14.00,2013-08-12 20:14:00,
2013-08-12 16:20:00,79.9,70.5,27.95,SSE,160,3.0,6.0,73,0.00,,---,0.00,VWS V14.00,2013-08-12 20:20:00,
2013-08-12 16:25:00,79.9,70.5,27.95,SSE,161,2.0,6.0,73,0.00,,---,0.00,VWS V14.00,2013-08-12 20:25:00,
2013-08-12 16:30:00,80.0,70.6,27.95,SSE,160,3.0,6.0,73,0.00,,---,0.00,VWS V14.00,2013-08-12 20:30:00,
2013-08-12 16:35:00,80.1,70.7,27.95,SSE,161,3.0,6.0,73,0.00,,---,0.00,VWS V14.00,2013-08-12 20:35:00,
2013-08-12 16:40:00,80.1,71.1,27.95,SSE,161,3.0,5.0,74,0.00,,---,0.00,VWS V14.00,2013-08-12 20:40:00,
2013-08-12 16:45:00,80.2,71.6,27.95,SSE,161,3.0,5.0,75,0.00,,---,0.00,VWS V14.00,2013-08-12 20:45:00,
2013-08-12 16:50:00,80.2,71.6,27.95,SSE,161,2.0,5.0,75,0.00,,---,0.00,VWS V14.00,2013-08-12 20:50:00,
2013-08-12 16:55:00,80.5,72.2,27.95,SSE,161,0.0,5.0,76,0.00,,---,0.00,VWS V14.00,2013-08-12 20:55:00,
2013-08-12 17:00:00,80.7,72.0,27.95,SSE,161,0.0,5.0,75,0.00,,---,0.00,VWS V14.00,2013-08-12 21:00:00,
2013-08-12 17:05:00,80.8,71.7,27.95,SSE,161,0.0,5.0,74,0.00,,---,0.00,VWS V14.00,2013-08-12 21:05:00,
2013-08-12 17:10:00,80.9,71.8,27.95,SSE,161,0.0,1.0,74,0.00,,---,0.00,VWS V14.00,2013-08-12 21:10:00,
2013-08-12 17:15:00,80.9,71.4,27.95,SSE,160,0.0,1.0,73,0.00,,---,0.00,VWS V14.00,2013-08-12 21:15:00,
2013-08-12 17:20:00,80.9,71.4,27.95,SSE,161,1.0,4.0,73,0.00,,---,0.00,VWS V14.00,2013-08-12 21:20:00,
2013-08-12 17:25:00,80.9,71.4,27.95,SSE,161,3.0,5.0,73,0.00,,---,0.00,VWS V14.00,2013-08-12 21:25:00,
2013-08-12 17:30:00,80.8,72.1,27.95,SSE,160,0.0,5.0,75,0.00,,---,0.00,VWS V14.00,2013-08-12 21:30:00,
2013-08-12 17:36:00,80.8,71.7,27.95,SSE,160,0.0,5.0,74,0.00,,---,0.00,VWS V14.00,2013-08-12 21:36:00,
2013-08-12 17:41:00,80.7,72.0,27.95,SSE,161,0.0,0.0,75,0.00,,---,0.00,VWS V14.00,2013-08-12 21:41:00,
2013-08-12 17:46:00,80.7,72.4,27.95,SSE,161,0.0,1.0,76,0.00,,---,0.00,VWS V14.00,2013-08-12 21:46:00,
2013-08-12 17:51:00,80.3,72.1,27.95,SSE,160,0.0,3.0,76,0.00,,---,0.00,VWS V14.00,2013-08-12 21:51:00,
2013-08-12 17:56:00,80.1,72.2,27.95,SSE,161,0.0,3.0,77,0.00,,---,0.00,VWS V14.00,2013-08-12 21:56:00,
2013-08-12 18:01:00,80.0,72.2,27.95,SSE,161,0.0,3.0,77,0.00,,---,0.00,VWS V14.00,2013-08-12 22:01:00,
2013-08-12 18:06:00,80.1,72.2,27.95,SSE,161,0.0,3.0,77,0.00,,---,0.00,VWS V14.00,2013-08-12 22:06:00,
2013-08-12 18:11:00,80.1,73.0,27.95,SSE,161,0.0,1.0,79,0.00,,---,0.00,VWS V14.00,2013-08-12 22:11:00,
2013-08-12 18:16:00,79.6,72.9,27.95,SSE,161,0.0,1.0,80,0.00,,---,0.00,VWS V14.00,2013-08-12 22:16:00,
2013-08-12 18:21:00,79.4,72.7,27.95,SSE,160,1.0,1.0,80,0.00,,---,0.00,VWS V14.00,2013-08-12 22:21:00,
2013-08-12 18:26:00,79.2,71.8,27.95,SSE,161,3.0,4.0,78,0.00,,---,0.00,VWS V14.00,2013-08-12 22:26:00,
2013-08-12 18:31:00,79.3,72.2,27.95,SSE,161,1.0,4.0,79,0.00,,---,0.00,VWS V14.00,2013-08-12 22:31:00,
2013-08-12 18:37:00,79.3,72.2,27.95,SSE,161,0.0,4.0,79,0.00,,---,0.00,VWS V14.00,2013-08-12 22:37:00,
2013-08-12 18:42:00,79.3,72.2,27.95,SSE,161,0.0,0.0,79,0.00,,---,0.00,VWS V14.00,2013-08-12 22:42:00,
2013-08-12 18:47:00,79.2,72.5,27.95,SSE,161,0.0,0.0,80,0.00,,---,0.00,VWS V14.00,2013-08-12 22:47:00,
2013-08-12 18:52:00,79.1,72.4,27.95,SSE,161,0.0,1.0,80,0.00,,---,0.00,VWS V14.00,2013-08-12 22:52:00,
2013-08-12 18:57:00,78.8,72.5,27.95,SSE,160,0.0,3.0,81,0.00,,---,0.00,VWS V14.00,2013-08-12 22:57:00,
2013-08-12 19:02:00,78.7,72.0,27.95,SSE,161,0.0,3.0,80,0.00,,---,0.00,VWS V14.00,2013-08-12 23:02:00,
2013-08-12 19:07:00,78.7,72.4,27.95,SSE,161,0.0,3.0,81,0.00,,---,0.00,VWS V14.00,2013-08-12 23:07:00,
2013-08-12 19:12:00,78.5,72.2,27.95,SSE,160,0.0,0.0,81,0.00,,---,0.00,VWS V14.00,2013-08-12 23:12:00,
2013-08-12 19:17:00,78.3,72.4,27.95,SSE,161,3.0,3.0,82,0.00,,---,0.00,VWS V14.00,2013-08-12 23:17:00,
2013-08-12 19:22:00,77.9,72.0,27.95,SSE,160,2.0,3.0,82,0.00,,---,0.00,VWS V14.00,2013-08-12 23:22:00,
2013-08-12 19:27:00,77.8,71.9,27.95,SSE,161,0.0,3.0,82,0.00,,---,0.00,VWS V14.00,2013-08-12 23:27:00,
2013-08-12 19:32:00,77.7,71.8,27.95,SSE,161,0.0,3.0,82,0.00,,---,0.00,VWS V14.00,2013-08-12 23:32:00,
2013-08-12 19:37:00,77.6,71.7,27.95,SSE,161,0.0,0.0,82,0.00,,---,0.00,VWS V14.00,2013-08-12 23:37:00,
2013-08-12 19:42:00,77.6,71.7,27.95,SSE,161,0.0,0.0,82,0.00,,---,0.00,VWS V14.00,2013-08-12 23:42:00,
2013-08-12 19:48:00,77.6,71.7,27.95,SSE,161,0.0,0.0,82,0.00,,---,0.00,VWS V14.00,2013-08-12 23:48:00,
2013-08-12 19:53:00,77.6,71.7,27.95,SSE,161,0.0,0.0,82,0.00,,---,0.00,VWS V14.00,2013-08-12 23:53:00,
2013-08-12 19:58:00,77.5,71.6,27.95,SSE,161,0.0,0.0,82,0.00,,---,0.00,VWS V14.00,2013-08-12 23:58:00,
2013-08-12 20:03:00,77.3,72.1,27.95,SSE,160,0.0,0.0,84,0.00,,---,0.00,VWS V14.00,2013-08-13 00:03:00,
2013-08-12 20:08:00,77.0,71.8,27.95,SSE,161,0.0,0.0,84,0.00,,---,0.00,VWS V14.00,2013-08-13 00:08:00,
2013-08-12 20:13:00,76.6,71.8,27.95,SSE,160,0.0,0.0,85,0.00,,---,0.00,VWS V14.00,2013-08-13 00:13:00,
2013-08-12 20:18:00,76.2,71.4,27.95,SSE,161,0.0,0.0,85,0.00,,---,0.00,VWS V14.00,2013-08-13 00:18:00,
2013-08-12 20:23:00,75.8,71.0,27.95,SSE,161,0.0,0.0,85,0.00,,---,0.00,VWS V14.00,2013-08-13 00:23:00,
2013-08-12 20:28:00,75.6,71.1,27.95,SSE,160,0.0,3.0,86,0.00,,---,0.00,VWS V14.00,2013-08-13 00:28:00,
2013-08-12 20:33:00,75.5,70.7,27.95,SSE,161,1.0,3.0,85,0.00,,---,0.00,VWS V14.00,2013-08-13 00:33:00,
2013-08-12 20:38:00,75.7,70.5,27.95,SSE,161,1.0,2.0,84,0.00,,---,0.00,VWS V14.00,2013-08-13 00:38:00,
2013-08-12 20:43:00,75.8,70.3,27.95,SSE,160,0.0,2.0,83,0.00,,---,0.00,VWS V14.00,2013-08-13 00:43:00,
2013-08-12 20:48:00,75.9,70.4,27.95,SSE,161,0.0,3.0,83,0.00,,---,0.00,VWS V14.00,2013-08-13 00:48:00,
2013-08-12 20:53:00,75.9,70.4,27.95,SSE,160,2.0,3.0,83,0.00,,---,0.00,VWS V14.00,2013-08-13 00:53:00,
2013-08-12 20:58:00,75.9,70.7,27.95,SSE,160,2.0,3.0,84,0.00,,---,0.00,VWS V14.00,2013-08-13 00:58:00,
2013-08-12 20:59:00,75.8,70.6,27.95,SSE,161,0.0,3.0,84,0.00,,---,0.00,VWS V14.00,2013-08-13 00:59:00,
2013-08-12 21:04:00,75.8,70.6,27.95,SSE,161,0.0,3.0,84,0.00,,---,0.00,VWS V14.00,2013-08-13 01:04:00,
2013-08-12 21:09:00,75.7,70.9,27.95,SSE,160,0.0,0.0,85,0.00,,---,0.00,VWS V14.00,2013-08-13 01:09:00,
2013-08-12 21:15:00,75.7,70.9,27.95,SSE,161,0.0,1.0,85,0.00,,---,0.00,VWS V14.00,2013-08-13 01:15:00,
2013-08-12 21:20:00,75.6,70.8,31.97,SSE,161,0.0,2.0,85,0.00,,---,0.00,VWS V14.00,2013-08-13 01:20:00,
2013-08-12 21:25:00,75.5,71.0,31.97,SSE,160,0.0,2.0,86,0.00,,---,0.00,VWS V14.00,2013-08-13 01:25:00,
2013-08-12 21:30:00,75.4,70.9,31.97,SSE,161,0.0,2.0,86,0.00,,---,0.00,VWS V14.00,2013-08-13 01:30:00,
2013-08-12 21:35:00,75.4,70.9,31.97,SSE,161,0.0,2.0,86,0.00,,---,0.00,VWS V14.00,2013-08-13 01:35:00,
2013-08-12 21:40:00,75.4,70.9,31.97,SSE,160,0.0,1.0,86,0.00,,---,0.00,VWS V14.00,2013-08-13 01:40:00,
2013-08-12 21:45:00,75.3,70.8,31.97,SSE,161,0.0,1.0,86,0.00,,---,0.00,VWS V14.00,2013-08-13 01:45:00,
2013-08-12 21:50:00,75.3,70.8,31.97,SSE,160,0.0,2.0,86,0.00,,---,0.00,VWS V14.00,2013-08-13 01:50:00,
2013-08-12 21:55:00,75.2,70.7,31.97,SSE,161,0.0,2.0,86,0.00,,---,0.00,VWS V14.00,2013-08-13 01:55:00,
2013-08-12 22:00:00,74.9,70.4,31.97,SSE,161,0.0,2.0,86,0.00,,---,0.00,VWS V14.00,2013-08-13 02:00:00,
2013-08-12 22:05:00,74.9,70.4,31.97,SSE,161,0.0,3.0,86,0.00,,---,0.00,VWS V14.00,2013-08-13 02:05:00,
2013-08-12 22:10:00,75.0,70.9,31.97,SSE,161,0.0,4.0,87,0.00,,---,0.00,VWS V14.00,2013-08-13 02:10:00,
2013-08-12 22:15:00,75.0,70.5,31.97,SSE,161,0.0,4.0,86,0.00,,---,0.00,VWS V14.00,2013-08-13 02:15:00,
2013-08-12 22:20:00,75.0,70.5,31.97,SSE,161,0.0,4.0,86,0.00,,---,0.00,VWS V14.00,2013-08-13 02:20:00,
2013-08-12 22:25:00,75.0,70.5,31.97,SSE,161,0.0,4.0,86,0.00,,---,0.00,VWS V14.00,2013-08-13 02:25:00,
2013-08-12 22:31:00,74.9,70.4,31.97,SSE,161,0.0,4.0,86,0.00,,---,0.00,VWS V14.00,2013-08-13 02:31:00,
2013-08-12 22:36:00,74.9,70.4,31.97,SSE,163,2.0,4.0,86,0.00,,---,0.00,VWS V14.00,2013-08-13 02:36:00,
2013-08-12 22:41:00,75.0,70.5,31.97,SSE,164,0.0,3.0,86,0.00,,---,0.00,VWS V14.00,2013-08-13 02:41:00,
2013-08-12 22:46:00,75.1,70.6,31.97,SSE,165,0.0,3.0,86,0.00,,---,0.00,VWS V14.00,2013-08-13 02:46:00,
2013-08-12 22:51:00,75.2,70.7,31.97,SSE,164,0.0,3.0,86,0.00,,---,0.00,VWS V14.00,2013-08-13 02:51:00,
2013-08-12 22:56:00,75.2,70.7,31.97,SSE,165,2.0,3.0,86,0.00,,---,0.00,VWS V14.00,2013-08-13 02:56:00,
2013-08-12 23:01:00,75.1,70.6,31.97,SSE,165,0.0,3.0,86,0.00,,---,0.00,VWS V14.00,2013-08-13 03:01:00,
2013-08-12 23:06:00,75.0,70.9,31.97,SSE,164,0.0,3.0,87,0.00,,---,0.00,VWS V14.00,2013-08-13 03:06:00,
2013-08-12 23:11:00,74.9,70.8,31.97,SSE,165,0.0,0.0,87,0.00,,---,0.00,VWS V14.00,2013-08-13 03:11:00,
2013-08-12 23:16:00,74.7,70.6,31.97,SSE,164,0.0,0.0,87,0.00,,---,0.00,VWS V14.00,2013-08-13 03:16:00,
2013-08-12 23:21:00,74.6,70.5,31.97,SSE,164,0.0,0.0,87,0.00,,---,0.00,VWS V14.00,2013-08-13 03:21:00,
2013-08-12 23:26:00,74.5,70.4,31.97,SSE,165,0.0,0.0,87,0.00,,---,0.00,VWS V14.00,2013-08-13 03:26:00,
2013-08-12 23:31:00,74.4,70.3,31.97,SSE,164,0.0,0.0,87,0.00,,---,0.00,VWS V14.00,2013-08-13 03:31:00,
2013-08-12 23:36:00,74.4,69.9,31.97,SSE,165,0.0,0.0,86,0.00,,---,0.00,VWS V14.00,2013-08-13 03:36:00,
2013-08-12 23:41:00,74.3,69.8,31.97,SSE,165,0.0,0.0,86,0.00,,---,0.00,VWS V14.00,2013-08-13 03:41:00,
2013-08-12 23:46:00,74.2,69.8,31.97,SSE,164,0.0,1.0,86,0.00,,---,0.00,VWS V14.00,2013-08-13 03:46:00,
2013-08-12 23:52:00,74.2,69.8,31.97,SSE,165,0.0,1.0,86,0.00,,---,0.00,VWS V14.00,2013-08-13 03:52:00,
2013-08-12 23:58:00,74.1,69.7,31.97,SSE,164,0.0,1.0,86,0.00,,---,0.00,VWS V14.00,2013-08-13 03:58:00,